Hourly Data Report for September 03, 2017

All times are specified in Local Standard Time (LST). Add 1 hour to adjust for Daylight Saving Time where and when it is observed.

MISCOU ISLAND (AUT)
NEW BRUNSWICK

48°00'32.002" N
64°29'39.008" W
4.00 m
8103050
71719
WMI

Download Data

Hourly Data (September 2017)
Hourly Data Report for September 3, 2017
Temp Definition
°C
Dew Point Temp Definition
°C
Rel Hum Definition
%
Wind Dir Definition
10's deg

Wind Spd Definition
km/h
Visibility Definition
km
Stn Press Definition
kPa
Hmdx Definition


Wind Chill Definition


Weather Definition


TIME
00:00 6.6 5.4 92 21 11   102.18     LegendNANA
01:00 7.0 6.0 93 20 10   102.22     LegendNANA
02:00 7.5 6.6 94 20 10   102.22     LegendNANA
03:00 7.4 6.6 94 20 8   102.22     LegendNANA
04:00 6.8 6.1 95 21 10   102.25     LegendNANA
05:00 7.2 6.7 96 22 10   102.29     LegendNANA
06:00 7.8 7.2 96 19 6   102.31     LegendNANA
07:00 11.6 11.1 97 19 6   102.34     LegendNANA
08:00 15.0 14.2 95 10 4   102.35     LegendNANA
09:00 16.6 11.9 74 13 8   102.34     LegendNANA
10:00 17.3 11.6 69 15 16   102.36     LegendNANA
11:00 18.0 12.6 71 15 16   102.30     LegendNANA
12:00 17.8 13.2 75 14 16   102.23     LegendNANA
13:00 16.7 12.5 76 15 21   102.16     LegendNANA
14:00 17.3 13.5 78 15 19   102.08     LegendNANA
15:00 17.5 13.2 76 15 19   102.03     LegendNANA
16:00 17.4 13.1 76 15 20   101.95     LegendNANA
17:00 16.4 13.4 83 14 19   101.88     LegendNANA
18:00 15.8 13.2 85 15 19   101.85     LegendNANA
19:00 15.3 13.0 86 15 21   101.76     LegendNANA
20:00 15.2 12.9 86 14 19   101.71     LegendNANA
21:00 15.4 12.6 83 14 20   101.60     LegendNANA
22:00 15.4 12.9 85 14 20   101.48     LegendNANA
23:00 15.2 12.9 86 14 20   101.39     LegendNANA

Notes on Data Quality.

Legend

  • E = Estimated
  • M = Missing
  • NA = Not Available
  • ‡ = Partner data that is not subject to review by the National Climate Archives
Date modified: